Time,TemperatureF,DewpointF,PressureIn,WindDirection,WindDirectionDegrees,WindSpeedMPH,WindSpeedGustMPH,Humidity,HourlyPrecipIn,Conditions,Clouds,dailyrainin,SoftwareType,DateUTC
2013-02-02 00:00:00,23.2,16.5,28.64,West,270,10.7,15.2,75,0.00,,,0.00,VWS V14.01,2013-02-02 06:00:00,
2013-02-02 00:05:00,23.0,16.3,28.64,West,270,9.8,13.0,75,0.00,,,0.00,VWS V14.01,2013-02-02 06:05:00,
2013-02-02 00:10:00,22.8,15.8,28.64,WNW,292,8.1,12.1,74,0.00,,,0.00,VWS V14.01,2013-02-02 06:10:00,
2013-02-02 00:15:00,20.3,9.7,28.67,NW,315,14.8,14.8,63,0.00,,,0.00,VWS V14.01,2013-02-02 06:15:00,
2013-02-02 00:20:00,22.6,16.2,28.64,WNW,292,11.0,13.2,76,0.00,,,0.00,VWS V14.01,2013-02-02 06:20:00,
2013-02-02 00:25:00,19.6,9.4,28.67,NW,315,8.7,12.5,64,0.00,,,0.00,VWS V14.01,2013-02-02 06:25:00,
2013-02-02 00:30:00,22.8,15.2,28.67,WNW,292,13.2,15.4,72,0.00,,,0.00,VWS V14.01,2013-02-02 06:30:00,
2013-02-02 00:35:00,19.0,9.6,28.70,NW,315,8.5,12.3,66,0.00,,,0.00,VWS V14.01,2013-02-02 06:35:00,
2013-02-02 00:40:00,22.6,13.7,28.67,NW,315,10.3,17.0,68,0.00,,,0.00,VWS V14.01,2013-02-02 06:40:00,
2013-02-02 00:45:00,22.1,12.8,28.67,NW,315,13.0,14.8,67,0.00,,,0.00,VWS V14.01,2013-02-02 06:45:00,
2013-02-02 00:50:00,18.3,9.9,28.70,NW,315,5.6,8.1,69,0.00,,,0.00,VWS V14.01,2013-02-02 06:50:00,
2013-02-02 00:55:00,21.6,11.6,28.67,WNW,292,10.5,17.2,65,0.00,,,0.00,VWS V14.01,2013-02-02 06:55:00,
2013-02-02 01:00:00,21.2,10.9,28.67,WNW,292,11.4,17.2,64,0.00,,,0.00,VWS V14.01,2013-02-02 07:00:00,
2013-02-02 01:05:00,18.0,10.5,28.70,NW,315,6.0,10.7,72,0.00,,,0.00,VWS V14.01,2013-02-02 07:05:00,
2013-02-02 01:10:00,20.7,10.4,28.67,NW,315,12.5,17.0,64,0.00,,,0.00,VWS V14.01,2013-02-02 07:10:00,
2013-02-02 01:15:00,20.3,9.7,28.67,NW,315,14.8,14.8,63,0.00,,,0.00,VWS V14.01,2013-02-02 07:15:00,
2013-02-02 01:20:00,18.1,11.3,28.70,NW,315,6.3,10.3,74,0.00,,,0.00,VWS V14.01,2013-02-02 07:20:00,
2013-02-02 01:25:00,19.6,9.4,28.67,NW,315,8.7,12.5,64,0.00,,,0.00,VWS V14.01,2013-02-02 07:25:00,
2013-02-02 01:30:00,19.2,9.4,28.70,NNW,338,7.8,12.5,65,0.00,,,0.00,VWS V14.01,2013-02-02 07:30:00,
2013-02-02 01:35:00,18.1,11.6,28.70,WNW,292,5.6,8.1,75,0.00,,,0.00,VWS V14.01,2013-02-02 07:35:00,
2013-02-02 01:40:00,18.9,9.7,28.70,NW,315,5.4,12.3,67,0.00,,,0.00,VWS V14.01,2013-02-02 07:40:00,
2013-02-02 01:45:00,18.1,11.9,28.70,NW,315,4.3,6.5,76,0.00,,,0.00,VWS V14.01,2013-02-02 07:45:00,
2013-02-02 01:50:00,18.3,9.9,28.70,NW,315,5.6,8.1,69,0.00,,,0.00,VWS V14.01,2013-02-02 07:50:00,
2013-02-02 01:55:00,18.3,9.9,28.70,NW,315,6.3,10.5,69,0.00,,,0.00,VWS V14.01,2013-02-02 07:55:00,
2013-02-02 02:00:00,17.4,9.9,28.73,North,0,6.3,10.7,72,0.00,,,0.00,VWS V14.01,2013-02-02 08:00:00,
2013-02-02 02:05:00,17.1,9.3,28.73,NNW,338,6.5,12.8,71,0.00,,,0.00,VWS V14.01,2013-02-02 08:05:00,
2013-02-02 02:10:00,18.1,11.3,28.70,NW,315,10.5,17.7,74,0.00,,,0.00,VWS V14.01,2013-02-02 08:10:00,
2013-02-02 02:15:00,18.3,11.4,28.70,NW,315,7.6,13.0,74,0.00,,,0.00,VWS V14.01,2013-02-02 08:15:00,
2013-02-02 02:20:00,16.7,9.3,28.73,NW,315,5.8,8.5,72,0.00,,,0.00,VWS V14.01,2013-02-02 08:20:00,
2013-02-02 02:25:00,18.1,11.3,28.70,NNW,338,6.5,10.7,74,0.00,,,0.00,VWS V14.01,2013-02-02 08:25:00,
2013-02-02 02:30:00,18.1,11.6,28.70,NNW,338,7.2,10.3,75,0.00,,,0.00,VWS V14.01,2013-02-02 08:30:00,
2013-02-02 02:35:00,18.1,11.6,28.70,WNW,292,5.6,8.1,75,0.00,,,0.00,VWS V14.01,2013-02-02 08:35:00,
2013-02-02 02:40:00,15.4,6.8,28.70,NNW,338,7.4,10.5,68,0.00,,,0.00,VWS V14.01,2013-02-02 08:40:00,
2013-02-02 02:45:00,18.1,11.9,28.70,NW,315,4.3,6.5,76,0.00,,,0.00,VWS V14.01,2013-02-02 08:45:00,
2013-02-02 02:50:00,18.0,11.7,28.70,North,0,2.5,6.3,76,0.00,,,0.00,VWS V14.01,2013-02-02 08:50:00,
2013-02-02 02:55:00,15.3,6.6,28.73,NW,315,6.5,10.7,68,0.00,,,0.00,VWS V14.01,2013-02-02 08:55:00,
2013-02-02 03:00:00,17.4,9.9,28.73,North,0,6.3,10.7,72,0.00,,,0.00,VWS V14.01,2013-02-02 09:00:00,
2013-02-02 03:05:00,15.1,6.8,28.73,NW,315,7.4,10.7,69,0.00,,,0.00,VWS V14.01,2013-02-02 09:05:00,
2013-02-02 03:10:00,16.9,9.1,28.73,NW,315,6.9,8.1,71,0.00,,,0.00,VWS V14.01,2013-02-02 09:10:00,
2013-02-02 03:15:00,16.9,9.7,28.73,NNW,338,6.5,9.8,73,0.00,,,0.00,VWS V14.01,2013-02-02 09:15:00,
2013-02-02 03:20:00,14.7,5.8,28.73,NW,315,7.4,10.5,67,0.00,,,0.00,VWS V14.01,2013-02-02 09:20:00,
2013-02-02 03:25:00,16.3,8.6,28.73,NNW,338,7.6,8.7,71,0.00,,,0.00,VWS V14.01,2013-02-02 09:25:00,
2013-02-02 03:30:00,14.2,4.9,28.73,NNW,338,6.3,11.0,66,0.00,,,0.00,VWS V14.01,2013-02-02 09:30:00,
2013-02-02 03:35:00,15.8,7.1,28.70,NNW,338,8.1,10.7,68,0.00,,,0.00,VWS V14.01,2013-02-02 09:35:00,
2013-02-02 03:40:00,15.4,6.8,28.70,NNW,338,7.4,10.5,68,0.00,,,0.00,VWS V14.01,2013-02-02 09:40:00,
2013-02-02 03:45:00,13.5,4.2,28.73,NW,315,4.9,8.7,66,0.00,,,0.00,VWS V14.01,2013-02-02 09:45:00,
2013-02-02 03:50:00,15.3,6.9,28.73,NW,315,4.9,11.0,69,0.00,,,0.00,VWS V14.01,2013-02-02 09:50:00,
2013-02-02 03:55:00,12.9,3.7,28.73,NNW,338,3.8,8.7,66,0.00,,,0.00,VWS V14.01,2013-02-02 09:55:00,
2013-02-02 04:00:00,15.1,6.4,28.73,NNW,338,10.7,10.7,68,0.00,,,0.00,VWS V14.01,2013-02-02 10:00:00,
2013-02-02 04:05:00,15.1,6.8,28.73,NW,315,7.4,10.7,69,0.00,,,0.00,VWS V14.01,2013-02-02 10:05:00,
2013-02-02 04:10:00,12.6,3.4,28.76,NNW,338,9.8,11.2,66,0.00,,,0.00,VWS V14.01,2013-02-02 10:10:00,
2013-02-02 04:15:00,14.9,6.3,28.73,North,0,5.8,10.1,68,0.00,,,0.00,VWS V14.01,2013-02-02 10:15:00,
2013-02-02 04:20:00,12.2,3.0,28.76,NW,315,4.3,8.1,66,0.00,,,0.00,VWS V14.01,2013-02-02 10:20:00,
2013-02-02 04:25:00,14.5,5.3,28.73,North,0,5.8,10.7,66,0.00,,,0.00,VWS V14.01,2013-02-02 10:25:00,
2013-02-02 04:30:00,12.0,2.9,28.76,NW,315,6.0,12.5,66,0.00,,,0.00,VWS V14.01,2013-02-02 10:30:00,
2013-02-02 04:35:00,13.8,4.6,28.73,NNW,338,6.0,9.8,66,0.00,,,0.00,VWS V14.01,2013-02-02 10:35:00,
2013-02-02 04:40:00,11.7,2.5,28.76,NNW,338,5.8,8.1,66,0.00,,,0.00,VWS V14.01,2013-02-02 10:40:00,
2013-02-02 04:45:00,13.5,4.2,28.73,NW,315,4.9,8.7,66,0.00,,,0.00,VWS V14.01,2013-02-02 10:45:00,
2013-02-02 04:50:00,13.1,3.9,28.73,NW,315,8.7,11.0,66,0.00,,,0.00,VWS V14.01,2013-02-02 10:50:00,
2013-02-02 04:55:00,11.1,2.0,28.79,NW,315,8.5,8.5,66,0.00,,,0.00,VWS V14.01,2013-02-02 10:55:00,
2013-02-02 05:00:00,12.7,3.5,28.76,NNW,338,6.5,7.6,66,0.00,,,0.00,VWS V14.01,2013-02-02 11:00:00,
2013-02-02 05:05:00,11.1,2.0,28.79,NNW,338,6.3,8.7,66,0.00,,,0.00,VWS V14.01,2013-02-02 11:05:00,
2013-02-02 05:10:00,12.6,3.4,28.76,NNW,338,9.8,11.2,66,0.00,,,0.00,VWS V14.01,2013-02-02 11:10:00,
2013-02-02 05:15:00,10.9,1.8,28.79,NNW,338,6.3,10.5,66,0.00,,,0.00,VWS V14.01,2013-02-02 11:15:00,
2013-02-02 05:20:00,12.2,3.0,28.76,NW,315,4.3,8.1,66,0.00,,,0.00,VWS V14.01,2013-02-02 11:20:00,
2013-02-02 05:25:00,12.0,2.9,28.76,NW,315,5.6,6.5,66,0.00,,,0.00,VWS V14.01,2013-02-02 11:25:00,
2013-02-02 05:30:00,10.4,1.3,28.79,NW,315,6.5,8.1,66,0.00,,,0.00,VWS V14.01,2013-02-02 11:30:00,
2013-02-02 05:35:00,11.8,2.7,28.76,NW,315,5.8,6.9,66,0.00,,,0.00,VWS V14.01,2013-02-02 11:35:00,
2013-02-02 05:40:00,10.2,1.1,28.79,NW,315,4.0,9.0,66,0.00,,,0.00,VWS V14.01,2013-02-02 11:40:00,
2013-02-02 05:45:00,11.7,2.5,28.79,NW,315,7.4,7.6,66,0.00,,,0.00,VWS V14.01,2013-02-02 11:45:00,
2013-02-02 05:50:00,11.3,2.2,28.79,NW,315,4.9,7.4,66,0.00,,,0.00,VWS V14.01,2013-02-02 11:50:00,
2013-02-02 05:55:00,11.1,2.0,28.79,NW,315,8.5,8.5,66,0.00,,,0.00,VWS V14.01,2013-02-02 11:55:00,
2013-02-02 06:00:00,9.5,0.4,28.79,NNW,338,6.5,6.5,66,0.00,,,0.00,VWS V14.01,2013-02-02 12:00:00,
2013-02-02 06:05:00,11.1,2.0,28.79,NNW,338,6.3,8.7,66,0.00,,,0.00,VWS V14.01,2013-02-02 12:05:00,
2013-02-02 06:10:00,10.9,1.8,28.79,NNW,338,6.5,8.1,66,0.00,,,0.00,VWS V14.01,2013-02-02 12:10:00,
2013-02-02 06:15:00,9.1,0.1,28.79,NNW,338,3.8,7.8,66,0.00,,,0.00,VWS V14.01,2013-02-02 12:15:00,
2013-02-02 06:20:00,10.8,1.6,28.79,NW,315,4.0,8.7,66,0.00,,,0.00,VWS V14.01,2013-02-02 12:20:00,
2013-02-02 06:25:00,8.8,-0.2,28.79,NW,315,5.4,5.8,66,0.00,,,0.00,VWS V14.01,2013-02-02 12:25:00,
2013-02-02 06:30:00,10.4,1.3,28.79,NW,315,6.5,8.1,66,0.00,,,0.00,VWS V14.01,2013-02-02 12:30:00,
2013-02-02 06:35:00,8.6,-0.4,28.79,NW,315,4.3,6.0,66,0.00,,,0.00,VWS V14.01,2013-02-02 12:35:00,
2013-02-02 06:40:00,10.2,1.1,28.79,NW,315,4.0,9.0,66,0.00,,,0.00,VWS V14.01,2013-02-02 12:40:00,
2013-02-02 06:45:00,10.0,1.0,28.79,NW,315,4.3,6.0,66,0.00,,,0.00,VWS V14.01,2013-02-02 12:45:00,
2013-02-02 06:50:00,8.4,-0.6,28.82,NNW,338,3.8,4.9,66,0.00,,,0.00,VWS V14.01,2013-02-02 12:50:00,
2013-02-02 06:55:00,9.7,0.6,28.79,NW,315,3.8,5.8,66,0.00,,,0.00,VWS V14.01,2013-02-02 12:55:00,
2013-02-02 07:00:00,8.6,-0.4,28.82,NNW,338,4.9,6.0,66,0.00,,,0.00,VWS V14.01,2013-02-02 13:00:00,
2013-02-02 07:05:00,9.5,0.4,28.79,NW,315,5.8,6.5,66,0.00,,,0.00,VWS V14.01,2013-02-02 13:05:00,
2013-02-02 07:10:00,9.1,0.1,28.79,NW,315,3.8,6.7,66,0.00,,,0.00,VWS V14.01,2013-02-02 13:10:00,
2013-02-02 07:15:00,11.1,2.0,28.82,NNW,338,6.3,7.4,66,0.00,,,0.00,VWS V14.01,2013-02-02 13:15:00,
2013-02-02 07:20:00,9.0,-0.1,28.79,NW,315,4.7,6.5,66,0.00,,,0.00,VWS V14.01,2013-02-02 13:20:00,
2013-02-02 07:25:00,12.2,3.0,28.82,NW,315,6.5,9.6,66,0.00,,,0.00,VWS V14.01,2013-02-02 13:25:00,
2013-02-02 07:30:00,8.6,-0.4,28.79,NW,315,3.4,5.8,66,0.00,,,0.00,VWS V14.01,2013-02-02 13:30:00,
2013-02-02 07:35:00,12.6,3.4,28.82,NNW,338,2.5,7.8,66,0.00,,,0.00,VWS V14.01,2013-02-02 13:35:00,
2013-02-02 07:40:00,8.6,-0.4,28.79,NNW,338,5.4,7.2,66,0.00,,,0.00,VWS V14.01,2013-02-02 13:40:00,
2013-02-02 07:45:00,8.4,-0.6,28.82,NW,315,2.9,5.8,66,0.00,,,0.00,VWS V14.01,2013-02-02 13:45:00,
2013-02-02 07:50:00,13.6,4.4,28.82,NNW,338,6.3,8.5,66,0.00,,,0.00,VWS V14.01,2013-02-02 13:50:00,
2013-02-02 07:55:00,8.4,-0.6,28.82,NW,315,5.4,7.8,66,0.00,,,0.00,VWS V14.01,2013-02-02 13:55:00,
2013-02-02 08:00:00,14.2,0.2,28.85,North,0,4.9,6.3,53,0.00,,,0.00,VWS V14.01,2013-02-02 14:00:00,
2013-02-02 08:05:00,9.9,0.8,28.82,NNW,338,8.5,8.5,66,0.00,,,0.00,VWS V14.01,2013-02-02 14:05:00,
2013-02-02 08:10:00,10.6,1.5,28.82,NNW,338,5.4,8.5,66,0.00,,,0.00,VWS V14.01,2013-02-02 14:10:00,
2013-02-02 08:15:00,16.3,1.0,28.82,North,0,3.4,6.5,50,0.00,,,0.00,VWS V14.01,2013-02-02 14:15:00,
2013-02-02 08:20:00,11.7,2.5,28.82,NW,315,3.4,8.5,66,0.00,,,0.00,VWS V14.01,2013-02-02 14:20:00,
2013-02-02 08:25:00,12.2,3.0,28.82,NW,315,6.5,9.6,66,0.00,,,0.00,VWS V14.01,2013-02-02 14:25:00,
2013-02-02 08:30:00,12.2,3.0,28.82,NNW,338,3.6,8.7,66,0.00,,,0.00,VWS V14.01,2013-02-02 14:30:00,
2013-02-02 08:35:00,14.2,-1.0,28.82,NW,315,3.1,5.6,50,0.00,,,0.00,VWS V14.01,2013-02-02 14:35:00,
2013-02-02 08:40:00,12.9,3.7,28.82,NNW,338,5.8,7.8,66,0.00,,,0.00,VWS V14.01,2013-02-02 14:40:00,
2013-02-02 08:45:00,14.9,0.9,28.82,NW,315,4.9,6.5,53,0.00,,,0.00,VWS V14.01,2013-02-02 14:45:00,
2013-02-02 08:50:00,13.6,4.4,28.82,NNW,338,6.3,8.5,66,0.00,,,0.00,VWS V14.01,2013-02-02 14:50:00,
2013-02-02 08:55:00,14.0,0.4,28.82,NNW,338,3.6,8.7,54,0.00,,,0.00,VWS V14.01,2013-02-02 14:55:00,
2013-02-02 09:00:00,15.8,1.3,28.82,NW,315,3.4,9.6,52,0.00,,,0.00,VWS V14.01,2013-02-02 15:00:00,
2013-02-02 09:05:00,15.1,0.6,28.85,North,0,5.4,6.5,52,0.00,,,0.00,VWS V14.01,2013-02-02 15:05:00,
2013-02-02 09:10:00,17.1,1.6,28.82,NW,315,3.8,6.3,50,0.00,,,0.00,VWS V14.01,2013-02-02 15:10:00,
2013-02-02 09:15:00,16.3,1.0,28.82,North,0,3.4,6.5,50,0.00,,,0.00,VWS V14.01,2013-02-02 15:15:00,
2013-02-02 09:20:00,15.4,-0.3,28.82,NW,315,3.6,6.3,49,0.00,,,0.00,VWS V14.01,2013-02-02 15:20:00,
2013-02-02 09:25:00,16.9,0.2,28.82,NW,315,2.9,5.6,47,0.00,,,0.00,VWS V14.01,2013-02-02 15:25:00,
2013-02-02 09:30:00,14.9,-0.4,28.82,NNW,338,1.3,4.7,50,0.00,,,0.00,VWS V14.01,2013-02-02 15:30:00,
2013-02-02 09:35:00,16.7,0.4,28.82,NW,315,2.7,5.4,48,0.00,,,0.00,VWS V14.01,2013-02-02 15:35:00,
2013-02-02 09:40:00,14.2,-0.2,28.82,NNW,338,3.8,8.1,52,0.00,,,0.00,VWS V14.01,2013-02-02 15:40:00,
2013-02-02 09:45:00,14.9,0.9,28.82,NW,315,4.9,6.5,53,0.00,,,0.00,VWS V14.01,2013-02-02 15:45:00,
2013-02-02 09:50:00,15.4,1.0,28.82,West,270,3.8,8.1,52,0.00,,,0.00,VWS V14.01,2013-02-02 15:50:00,
2013-02-02 09:55:00,20.5,3.0,28.82,NW,315,2.9,3.8,46,0.00,,,0.00,VWS V14.01,2013-02-02 15:55:00,
2013-02-02 10:00:00,15.8,1.3,28.82,NW,315,3.4,9.6,52,0.00,,,0.00,VWS V14.01,2013-02-02 16:00:00,
2013-02-02 10:05:00,16.5,2.0,28.82,NW,315,5.4,6.9,52,0.00,,,0.00,VWS V14.01,2013-02-02 16:05:00,
2013-02-02 10:10:00,17.1,1.6,28.82,NW,315,3.8,6.3,50,0.00,,,0.00,VWS V14.01,2013-02-02 16:10:00,
2013-02-02 10:15:00,18.5,2.5,28.82,WNW,292,2.7,8.1,49,0.00,,,0.00,VWS V14.01,2013-02-02 16:15:00,
2013-02-02 10:20:00,22.6,4.0,28.82,NNW,338,2.5,4.0,44,0.00,,,0.00,VWS V14.01,2013-02-02 16:20:00,
2013-02-02 10:25:00,16.9,0.2,28.82,NW,315,2.9,5.6,47,0.00,,,0.00,VWS V14.01,2013-02-02 16:25:00,
2013-02-02 10:30:00,22.5,3.4,28.82,NNW,338,2.5,6.3,43,0.00,,,0.00,VWS V14.01,2013-02-02 16:30:00,
2013-02-02 10:35:00,16.7,0.4,28.82,NW,315,2.7,5.4,48,0.00,,,0.00,VWS V14.01,2013-02-02 16:35:00,
2013-02-02 10:40:00,21.2,2.2,28.82,NW,315,2.9,5.6,43,0.00,,,0.00,VWS V14.01,2013-02-02 16:40:00,
2013-02-02 10:45:00,18.3,1.5,28.82,NNW,338,2.9,5.8,47,0.00,,,0.00,VWS V14.01,2013-02-02 16:45:00,
2013-02-02 10:50:00,20.3,2.8,28.82,WNW,292,3.8,5.4,46,0.00,,,0.00,VWS V14.01,2013-02-02 16:50:00,
2013-02-02 10:55:00,20.3,1.9,28.82,NW,315,3.8,5.6,44,0.00,,,0.00,VWS V14.01,2013-02-02 16:55:00,
2013-02-02 11:00:00,20.1,2.2,28.82,NW,315,2.7,6.0,45,0.00,,,0.00,VWS V14.01,2013-02-02 17:00:00,
2013-02-02 11:05:00,19.6,1.7,28.82,NNE,22,0.0,3.1,45,0.00,,,0.00,VWS V14.01,2013-02-02 17:05:00,
2013-02-02 11:10:00,19.8,1.9,28.82,NNW,338,2.5,4.3,45,0.00,,,0.00,VWS V14.01,2013-02-02 17:10:00,
2013-02-02 11:15:00,21.4,3.3,28.82,North,0,2.9,3.8,45,0.00,,,0.00,VWS V14.01,2013-02-02 17:15:00,
2013-02-02 11:20:00,19.4,2.0,28.82,NW,315,5.6,7.8,46,0.00,,,0.00,VWS V14.01,2013-02-02 17:20:00,
2013-02-02 11:25:00,22.8,3.7,28.82,NW,315,4.3,4.9,43,0.00,,,0.00,VWS V14.01,2013-02-02 17:25:00,
2013-02-02 11:30:00,20.3,2.8,28.79,West,270,2.9,6.0,46,0.00,,,0.00,VWS V14.01,2013-02-02 17:30:00,
2013-02-02 11:35:00,21.4,2.4,28.82,NW,315,3.8,4.9,43,0.00,,,0.00,VWS V14.01,2013-02-02 17:35:00,
2013-02-02 11:40:00,21.2,2.2,28.82,NW,315,2.9,5.6,43,0.00,,,0.00,VWS V14.01,2013-02-02 17:40:00,
2013-02-02 11:45:00,22.1,3.5,28.79,West,270,4.3,4.9,44,0.00,,,0.00,VWS V14.01,2013-02-02 17:45:00,
2013-02-02 11:50:00,20.8,2.4,28.82,NW,315,5.4,5.4,44,0.00,,,0.00,VWS V14.01,2013-02-02 17:50:00,
2013-02-02 11:55:00,24.3,5.0,28.79,WSW,248,2.5,3.8,43,0.00,,,0.00,VWS V14.01,2013-02-02 17:55:00,
2013-02-02 12:00:00,19.8,1.9,28.82,West,270,5.8,8.1,45,0.00,,,0.00,VWS V14.01,2013-02-02 18:00:00,
2013-02-02 12:05:00,23.0,3.8,28.79,NW,315,3.1,6.3,43,0.00,,,0.00,VWS V14.01,2013-02-02 18:05:00,
2013-02-02 12:10:00,19.4,1.5,28.82,NW,315,3.8,7.4,45,0.00,,,0.00,VWS V14.01,2013-02-02 18:10:00,
2013-02-02 12:15:00,22.1,3.5,28.79,WNW,292,3.1,6.3,44,0.00,,,0.00,VWS V14.01,2013-02-02 18:15:00,
2013-02-02 12:20:00,19.4,2.0,28.82,NW,315,5.6,7.8,46,0.00,,,0.00,VWS V14.01,2013-02-02 18:20:00,
2013-02-02 12:25:00,19.8,2.3,28.82,West,270,2.5,5.6,46,0.00,,,0.00,VWS V14.01,2013-02-02 18:25:00,
2013-02-02 12:30:00,22.6,4.0,28.79,West,270,5.4,8.1,44,0.00,,,0.00,VWS V14.01,2013-02-02 18:30:00,
2013-02-02 12:35:00,20.7,3.2,28.79,West,270,5.4,5.4,46,0.00,,,0.00,VWS V14.01,2013-02-02 18:35:00,
2013-02-02 12:40:00,23.0,4.8,28.79,West,270,2.9,6.0,45,0.00,,,0.00,VWS V14.01,2013-02-02 18:40:00,
2013-02-02 12:45:00,22.1,3.5,28.79,West,270,4.3,4.9,44,0.00,,,0.00,VWS V14.01,2013-02-02 18:45:00,
2013-02-02 12:50:00,24.6,6.3,28.79,NW,315,1.1,4.3,45,0.00,,,0.00,VWS V14.01,2013-02-02 18:50:00,
2013-02-02 12:55:00,21.7,4.2,28.76,NW,315,2.7,4.0,46,0.00,,,0.00,VWS V14.01,2013-02-02 18:55:00,
2013-02-02 13:00:00,24.1,4.3,28.79,West,270,5.6,8.5,42,0.00,,,0.00,VWS V14.01,2013-02-02 19:00:00,
2013-02-02 13:05:00,23.0,3.8,28.79,NW,315,3.1,6.3,43,0.00,,,0.00,VWS V14.01,2013-02-02 19:05:00,
2013-02-02 13:10:00,21.4,5.6,28.76,WSW,248,3.1,4.9,50,0.00,,,0.00,VWS V14.01,2013-02-02 19:10:00,
2013-02-02 13:15:00,22.1,3.5,28.79,WNW,292,3.1,6.3,44,0.00,,,0.00,VWS V14.01,2013-02-02 19:15:00,
2013-02-02 13:20:00,22.3,3.7,28.79,WNW,292,2.9,5.6,44,0.00,,,0.00,VWS V14.01,2013-02-02 19:20:00,
2013-02-02 13:25:00,22.6,4.0,28.79,WSW,248,3.8,4.9,44,0.00,,,0.00,VWS V14.01,2013-02-02 19:25:00,
2013-02-02 13:30:00,22.5,7.5,28.76,SW,225,2.9,5.8,52,0.00,,,0.00,VWS V14.01,2013-02-02 19:30:00,
2013-02-02 13:35:00,22.8,4.7,28.79,West,270,2.7,6.3,45,0.00,,,0.00,VWS V14.01,2013-02-02 19:35:00,
2013-02-02 13:40:00,22.8,7.4,28.76,SSW,202,5.6,6.0,51,0.00,,,0.00,VWS V14.01,2013-02-02 19:40:00,
2013-02-02 13:45:00,22.5,3.9,28.76,West,270,5.8,6.9,44,0.00,,,0.00,VWS V14.01,2013-02-02 19:45:00,
2013-02-02 13:50:00,21.7,7.3,28.76,SW,225,3.8,5.4,53,0.00,,,0.00,VWS V14.01,2013-02-02 19:50:00,
2013-02-02 13:55:00,21.7,4.2,28.76,NW,315,2.7,4.0,46,0.00,,,0.00,VWS V14.01,2013-02-02 19:55:00,
2013-02-02 14:00:00,21.7,5.1,28.76,West,270,6.3,6.3,48,0.00,,,0.00,VWS V14.01,2013-02-02 20:00:00,
2013-02-02 14:05:00,21.7,8.1,28.73,WSW,248,4.9,5.6,55,0.00,,,0.00,VWS V14.01,2013-02-02 20:05:00,
2013-02-02 14:10:00,21.4,5.6,28.76,WSW,248,3.1,4.9,50,0.00,,,0.00,VWS V14.01,2013-02-02 20:10:00,
2013-02-02 14:15:00,21.9,8.6,28.73,SSW,202,3.8,6.5,56,0.00,,,0.00,VWS V14.01,2013-02-02 20:15:00,
2013-02-02 14:20:00,22.1,6.8,28.76,SSW,202,4.3,5.6,51,0.00,,,0.00,VWS V14.01,2013-02-02 20:20:00,
2013-02-02 14:25:00,22.3,6.5,28.76,SSW,202,3.6,4.9,50,0.00,,,0.00,VWS V14.01,2013-02-02 20:25:00,
2013-02-02 14:30:00,22.5,7.5,28.76,SW,225,2.9,5.8,52,0.00,,,0.00,VWS V14.01,2013-02-02 20:30:00,
2013-02-02 14:35:00,21.9,8.6,28.73,SSW,202,5.4,8.1,56,0.00,,,0.00,VWS V14.01,2013-02-02 20:35:00,
2013-02-02 14:40:00,22.8,7.4,28.76,SSW,202,5.6,6.0,51,0.00,,,0.00,VWS V14.01,2013-02-02 20:40:00,
2013-02-02 14:45:00,22.1,7.6,28.76,SW,225,3.8,5.6,53,0.00,,,0.00,VWS V14.01,2013-02-02 20:45:00,
2013-02-02 14:50:00,21.9,8.6,28.73,South,180,4.3,6.9,56,0.00,,,0.00,VWS V14.01,2013-02-02 20:50:00,
2013-02-02 14:55:00,21.7,7.7,28.76,SSW,202,1.1,4.9,54,0.00,,,0.00,VWS V14.01,2013-02-02 20:55:00,
2013-02-02 15:00:00,22.1,9.2,28.73,SSW,202,7.4,7.8,57,0.00,,,0.00,VWS V14.01,2013-02-02 21:00:00,
2013-02-02 15:05:00,21.7,8.1,28.73,WSW,248,4.9,5.6,55,0.00,,,0.00,VWS V14.01,2013-02-02 21:05:00,
2013-02-02 15:10:00,21.7,8.1,28.73,SW,225,5.4,6.0,55,0.00,,,0.00,VWS V14.01,2013-02-02 21:10:00,
2013-02-02 15:15:00,21.9,8.6,28.73,SSW,202,3.8,6.5,56,0.00,,,0.00,VWS V14.01,2013-02-02 21:15:00,
2013-02-02 15:20:00,21.9,8.6,28.73,WSW,248,4.9,6.9,56,0.00,,,0.00,VWS V14.01,2013-02-02 21:20:00,
2013-02-02 15:25:00,22.3,9.4,28.70,South,180,10.1,10.3,57,0.00,,,0.00,VWS V14.01,2013-02-02 21:25:00,
2013-02-02 15:30:00,21.7,8.5,28.73,SSW,202,5.6,6.5,56,0.00,,,0.00,VWS V14.01,2013-02-02 21:30:00,
2013-02-02 15:35:00,21.9,8.6,28.73,SSW,202,5.4,8.1,56,0.00,,,0.00,VWS V14.01,2013-02-02 21:35:00,
2013-02-02 15:40:00,21.9,8.6,28.73,SSW,202,4.0,7.2,56,0.00,,,0.00,VWS V14.01,2013-02-02 21:40:00,
2013-02-02 15:45:00,21.9,9.0,28.73,SSW,202,5.4,7.2,57,0.00,,,0.00,VWS V14.01,2013-02-02 21:45:00,
2013-02-02 15:50:00,21.7,13.1,28.70,SSW,202,8.5,9.8,69,0.00,,,0.00,VWS V14.01,2013-02-02 21:50:00,
2013-02-02 15:55:00,22.1,9.2,28.73,South,180,5.4,8.1,57,0.00,,,0.00,VWS V14.01,2013-02-02 21:55:00,
2013-02-02 16:00:00,21.6,15.2,28.70,SSW,202,5.4,7.8,76,0.00,,,0.00,VWS V14.01,2013-02-02 22:00:00,
2013-02-02 16:05:00,22.3,9.4,28.73,SW,225,6.5,8.7,57,0.00,,,0.00,VWS V14.01,2013-02-02 22:05:00,
2013-02-02 16:10:00,21.6,16.4,28.70,SSW,202,5.4,7.6,80,0.00,,,0.00,VWS V14.01,2013-02-02 22:10:00,
2013-02-02 16:15:00,22.3,9.4,28.70,SW,225,6.5,9.8,57,0.00,,,0.00,VWS V14.01,2013-02-02 22:15:00,
2013-02-02 16:20:00,22.3,9.0,28.70,SSW,202,4.9,8.7,56,0.00,,,0.00,VWS V14.01,2013-02-02 22:20:00,
2013-02-02 16:25:00,21.6,16.9,28.70,South,180,5.4,8.5,82,0.00,,,0.00,VWS V14.01,2013-02-02 22:25:00,
2013-02-02 16:30:00,22.3,10.1,28.70,South,180,7.2,11.0,59,0.00,,,0.00,VWS V14.01,2013-02-02 22:30:00,
2013-02-02 16:35:00,21.6,17.5,28.70,South,180,7.8,10.1,84,0.00,,,0.00,VWS V14.01,2013-02-02 22:35:00,
2013-02-02 16:40:00,22.1,11.4,28.70,South,180,7.2,8.7,63,0.00,,,0.00,VWS V14.01,2013-02-02 22:40:00,
2013-02-02 16:45:00,21.6,18.0,28.67,SSE,158,10.1,10.7,86,0.00,,,0.00,VWS V14.01,2013-02-02 22:45:00,
2013-02-02 16:50:00,21.7,13.1,28.70,SSW,202,8.5,9.8,69,0.00,,,0.00,VWS V14.01,2013-02-02 22:50:00,
2013-02-02 16:55:00,21.6,14.3,28.70,South,180,6.0,8.5,73,0.00,,,0.00,VWS V14.01,2013-02-02 22:55:00,
2013-02-02 17:00:00,21.7,18.5,28.67,South,180,10.1,10.1,87,0.00,,,0.00,VWS V14.01,2013-02-02 23:00:00,
2013-02-02 17:05:00,21.6,15.8,28.70,SSW,202,6.0,8.7,78,0.00,,,0.00,VWS V14.01,2013-02-02 23:05:00,
2013-02-02 17:10:00,21.9,18.9,28.67,South,180,6.5,9.0,88,0.00,,,0.00,VWS V14.01,2013-02-02 23:10:00,
2013-02-02 17:15:00,21.6,16.6,28.70,South,180,8.1,8.1,81,0.00,,,0.00,VWS V14.01,2013-02-02 23:15:00,
2013-02-02 17:20:00,21.6,16.9,28.70,SSW,202,4.9,9.8,82,0.00,,,0.00,VWS V14.01,2013-02-02 23:20:00,
2013-02-02 17:25:00,21.6,16.9,28.70,South,180,5.4,8.5,82,0.00,,,0.00,VWS V14.01,2013-02-02 23:25:00,
2013-02-02 17:30:00,21.6,17.5,28.70,South,180,7.8,8.1,84,0.00,,,0.00,VWS V14.01,2013-02-02 23:30:00,
2013-02-02 17:35:00,22.1,19.9,28.67,South,180,6.3,9.2,91,0.00,,,0.00,VWS V14.01,2013-02-02 23:35:00,
2013-02-02 17:40:00,21.6,17.8,28.70,SSE,158,8.5,8.7,85,0.00,,,0.00,VWS V14.01,2013-02-02 23:40:00,
2013-02-02 17:45:00,22.3,20.1,28.67,SSW,202,9.8,13.2,91,0.00,,,0.00,VWS V14.01,2013-02-02 23:45:00,
2013-02-02 17:50:00,21.6,18.0,28.67,South,180,7.6,10.5,86,0.00,,,0.00,VWS V14.01,2013-02-02 23:50:00,
2013-02-02 17:55:00,22.6,20.4,28.67,SSW,202,5.4,8.7,91,0.00,,,0.00,VWS V14.01,2013-02-02 23:55:00,
2013-02-02 18:00:00,21.7,18.5,28.67,South,180,10.1,10.1,87,0.00,,,0.00,VWS V14.01,2013-02-03 00:00:00,
2013-02-02 18:05:00,22.8,20.6,28.67,SSW,202,7.6,10.3,91,0.00,,,0.00,VWS V14.01,2013-02-03 00:05:00,
2013-02-02 18:10:00,21.9,18.9,28.67,South,180,6.5,9.0,88,0.00,,,0.00,VWS V14.01,2013-02-03 00:10:00,
2013-02-02 18:15:00,21.9,19.2,28.67,South,180,7.2,10.1,89,0.00,,,0.00,VWS V14.01,2013-02-03 00:15:00,
2013-02-02 18:20:00,21.9,19.2,28.67,South,180,9.6,9.8,89,0.00,,,0.00,VWS V14.01,2013-02-03 00:20:00,
2013-02-02 18:25:00,21.9,19.4,28.67,South,180,8.1,9.6,90,0.00,,,0.00,VWS V14.01,2013-02-03 00:25:00,
2013-02-02 18:30:00,23.2,20.7,28.67,SSW,202,6.5,8.5,90,0.00,,,0.00,VWS V14.01,2013-02-03 00:30:00,
2013-02-02 18:35:00,22.1,19.9,28.67,South,180,6.3,9.2,91,0.00,,,0.00,VWS V14.01,2013-02-03 00:35:00,
2013-02-02 18:40:00,22.1,19.9,28.67,SSW,202,10.1,10.1,91,0.00,,,0.00,VWS V14.01,2013-02-03 00:40:00,
2013-02-02 18:45:00,24.1,22.4,28.64,SW,225,8.5,10.7,93,0.00,,,0.00,VWS V14.01,2013-02-03 00:45:00,
2013-02-02 18:50:00,22.5,20.2,28.67,SSW,202,6.5,9.8,91,0.00,,,0.00,VWS V14.01,2013-02-03 00:50:00,
2013-02-02 18:55:00,25.0,24.2,28.64,SW,225,9.8,10.7,97,0.00,,,0.00,VWS V14.01,2013-02-03 00:55:00,
2013-02-02 19:00:00,22.6,20.4,28.67,SSW,202,8.7,12.1,91,0.00,,,0.00,VWS V14.01,2013-02-03 01:00:00,
2013-02-02 19:05:00,22.8,20.6,28.67,SSW,202,7.6,10.3,91,0.00,,,0.00,VWS V14.01,2013-02-03 01:05:00,
2013-02-02 19:10:00,23.0,20.8,28.67,SSW,202,7.8,10.5,91,0.00,,,0.00,VWS V14.01,2013-02-03 01:10:00,
2013-02-02 19:15:00,25.3,23.9,28.64,SW,225,8.1,9.6,94,0.00,,,0.00,VWS V14.01,2013-02-03 01:15:00,
2013-02-02 19:20:00,23.2,20.7,28.67,SSW,202,10.7,10.7,90,0.00,,,0.00,VWS V14.01,2013-02-03 01:20:00,
2013-02-02 19:25:00,23.2,20.7,28.67,SW,225,7.8,10.7,90,0.00,,,0.00,VWS V14.01,2013-02-03 01:25:00,
2013-02-02 19:30:00,23.2,20.7,28.67,SSW,202,6.5,8.5,90,0.00,,,0.00,VWS V14.01,2013-02-03 01:30:00,
2013-02-02 19:35:00,23.4,21.1,28.67,South,180,7.2,8.1,91,0.00,,,0.00,VWS V14.01,2013-02-03 01:35:00,
2013-02-02 19:40:00,28.2,27.7,28.64,West,270,14.3,14.3,98,0.00,,,0.00,VWS V14.01,2013-02-03 01:40:00,
2013-02-02 19:45:00,24.1,22.4,28.64,SW,225,8.5,10.7,93,0.00,,,0.00,VWS V14.01,2013-02-03 01:45:00,
2013-02-02 19:50:00,24.6,23.6,28.64,SW,225,9.6,12.8,96,0.00,,,0.00,VWS V14.01,2013-02-03 01:50:00,
2013-02-02 19:55:00,30.6,27.4,28.64,West,270,19.5,19.5,88,0.00,,,0.00,VWS V14.01,2013-02-03 01:55:00,
2013-02-02 20:00:00,25.2,24.2,28.64,SW,225,8.7,10.3,96,0.00,,,0.00,VWS V14.01,2013-02-03 02:00:00,
2013-02-02 20:05:00,32.7,27.5,28.64,WNW,292,18.8,23.9,81,0.00,,,0.00,VWS V14.01,2013-02-03 02:05:00,
2013-02-02 20:10:00,25.3,23.9,28.64,SW,225,8.7,12.1,94,0.00,,,0.00,VWS V14.01,2013-02-03 02:10:00,
2013-02-02 20:15:00,33.1,26.4,28.61,WNW,292,16.6,22.8,76,0.00,,,0.00,VWS V14.01,2013-02-03 02:15:00,
2013-02-02 20:20:00,25.7,24.5,28.64,SSW,202,10.5,10.5,95,0.00,,,0.00,VWS V14.01,2013-02-03 02:20:00,
2013-02-02 20:25:00,25.9,24.9,28.64,SW,225,7.4,10.7,96,0.00,,,0.00,VWS V14.01,2013-02-03 02:25:00,
2013-02-02 20:30:00,32.9,25.2,28.64,NW,315,18.1,25.7,73,0.00,,,0.00,VWS V14.01,2013-02-03 02:30:00,
2013-02-02 20:35:00,27.1,26.6,28.64,West,270,10.7,10.7,98,0.00,,,0.00,VWS V14.01,2013-02-03 02:35:00,
2013-02-02 20:40:00,28.2,27.7,28.64,West,270,14.3,14.3,98,0.00,,,0.00,VWS V14.01,2013-02-03 02:40:00,
2013-02-02 20:45:00,29.1,28.6,28.64,West,270,12.8,19.5,98,0.00,,,0.00,VWS V14.01,2013-02-03 02:45:00,
2013-02-02 20:50:00,30.2,29.2,28.64,West,270,17.2,17.7,96,0.00,,,0.00,VWS V14.01,2013-02-03 02:50:00,
2013-02-02 20:55:00,33.3,25.6,28.64,NW,315,12.5,19.7,73,0.00,,,0.00,VWS V14.01,2013-02-03 02:55:00,
2013-02-02 21:00:00,31.8,28.4,28.64,WNW,292,11.0,20.1,87,0.00,,,0.00,VWS V14.01,2013-02-03 03:00:00,
2013-02-02 21:05:00,32.9,24.5,28.64,NNW,338,10.7,27.5,71,0.00,,,0.00,VWS V14.01,2013-02-03 03:05:00,
2013-02-02 21:10:00,33.1,26.7,28.64,WNW,292,16.6,24.2,77,0.00,,,0.00,VWS V14.01,2013-02-03 03:10:00,
2013-02-02 21:15:00,33.1,26.4,28.61,WNW,292,16.6,22.8,76,0.00,,,0.00,VWS V14.01,2013-02-03 03:15:00,
2013-02-02 21:20:00,33.3,25.9,28.61,WNW,292,26.0,27.1,74,0.00,,,0.00,VWS V14.01,2013-02-03 03:20:00,
2013-02-02 21:25:00,31.8,24.2,28.64,NW,315,12.5,14.8,73,0.00,,,0.00,VWS V14.01,2013-02-03 03:25:00,
2013-02-02 21:30:00,32.9,25.2,28.64,NW,315,18.1,25.7,73,0.00,,,0.00,VWS V14.01,2013-02-03 03:30:00,
2013-02-02 21:35:00,33.1,25.4,28.64,WNW,292,13.2,23.5,73,0.00,,,0.00,VWS V14.01,2013-02-03 03:35:00,
2013-02-02 21:40:00,29.8,22.2,28.64,WNW,292,24.6,27.5,73,0.00,,,0.00,VWS V14.01,2013-02-03 03:40:00,
2013-02-02 21:45:00,33.1,26.0,28.64,WNW,292,13.2,17.7,75,0.00,,,0.00,VWS V14.01,2013-02-03 03:45:00,
2013-02-02 21:50:00,29.3,21.1,28.67,WNW,292,28.9,28.9,71,0.00,,,0.00,VWS V14.01,2013-02-03 03:50:00,
2013-02-02 21:55:00,33.3,25.6,28.64,NW,315,12.5,19.7,73,0.00,,,0.00,VWS V14.01,2013-02-03 03:55:00,
2013-02-02 22:00:00,33.1,24.7,28.64,NW,315,19.5,25.3,71,0.00,,,0.00,VWS V14.01,2013-02-03 04:00:00,
2013-02-02 22:05:00,32.9,24.5,28.64,NNW,338,10.7,27.5,71,0.00,,,0.00,VWS V14.01,2013-02-03 04:05:00,
2013-02-02 22:10:00,28.0,18.9,28.64,WNW,292,25.3,29.5,68,0.00,,,0.00,VWS V14.01,2013-02-03 04:10:00,
2013-02-02 22:15:00,32.2,24.8,28.64,NNW,338,13.4,22.2,74,0.00,,,0.00,VWS V14.01,2013-02-03 04:15:00,
2013-02-02 22:20:00,32.2,24.8,28.64,NW,315,14.8,23.7,74,0.00,,,0.00,VWS V14.01,2013-02-03 04:20:00,
2013-02-02 22:25:00,31.8,24.2,28.64,NW,315,12.5,14.8,73,0.00,,,0.00,VWS V14.01,2013-02-03 04:25:00,
2013-02-02 22:30:00,31.3,23.6,28.64,NW,315,16.3,25.7,73,0.00,,,0.00,VWS V14.01,2013-02-03 04:30:00,
2013-02-02 22:35:00,29.8,22.6,28.64,NW,315,13.0,19.2,74,0.00,,,0.00,VWS V14.01,2013-02-03 04:35:00,
2013-02-02 22:40:00,29.8,22.2,28.64,WNW,292,24.6,27.5,73,0.00,,,0.00,VWS V14.01,2013-02-03 04:40:00,
2013-02-02 22:45:00,25.5,15.8,28.67,WNW,292,19.9,19.9,66,0.00,,,0.00,VWS V14.01,2013-02-03 04:45:00,
2013-02-02 22:50:00,29.3,21.1,28.67,WNW,292,28.9,28.9,71,0.00,,,0.00,VWS V14.01,2013-02-03 04:50:00,
2013-02-02 22:55:00,24.4,14.0,28.67,NW,315,13.0,19.0,64,0.00,,,0.00,VWS V14.01,2013-02-03 04:55:00,
2013-02-02 23:00:00,28.4,19.5,28.64,NW,315,26.0,29.5,69,0.00,,,0.00,VWS V14.01,2013-02-03 05:00:00,
2013-02-02 23:05:00,28.0,18.9,28.64,WNW,292,22.6,30.0,68,0.00,,,0.00,VWS V14.01,2013-02-03 05:05:00,
2013-02-02 23:10:00,23.0,14.0,28.70,NW,315,15.2,19.7,68,0.00,,,0.00,VWS V14.01,2013-02-03 05:10:00,
2013-02-02 23:15:00,27.9,19.0,28.67,NW,315,21.5,27.1,69,0.00,,,0.00,VWS V14.01,2013-02-03 05:15:00,
2013-02-02 23:20:00,27.5,18.7,28.67,NW,315,22.6,23.9,69,0.00,,,0.00,VWS V14.01,2013-02-03 05:20:00,
2013-02-02 23:25:00,27.5,18.7,28.67,WNW,292,21.0,25.7,69,0.00,,,0.00,VWS V14.01,2013-02-03 05:25:00,
2013-02-02 23:30:00,27.0,18.2,28.67,WNW,292,19.9,23.5,69,0.00,,,0.00,VWS V14.01,2013-02-03 05:30:00,
2013-02-02 23:35:00,26.6,17.8,28.67,NNW,338,12.3,25.7,69,0.00,,,0.00,VWS V14.01,2013-02-03 05:35:00,
2013-02-02 23:40:00,22.1,14.1,28.70,WNW,292,9.8,19.9,71,0.00,,,0.00,VWS V14.01,2013-02-03 05:40:00,
2013-02-02 23:45:00,25.5,15.8,28.67,WNW,292,19.9,19.9,66,0.00,,,0.00,VWS V14.01,2013-02-03 05:45:00,
2013-02-02 23:50:00,25.0,15.2,28.67,NW,315,12.5,22.8,66,0.00,,,0.00,VWS V14.01,2013-02-03 05:50:00,
2013-02-02 23:55:00,24.4,14.0,28.67,NW,315,13.0,19.0,64,0.00,,,0.00,VWS V14.01,2013-02-03 05:55:00,